Regional Weather Roundup
Issued by NWS Grand Forks, ND

Home | Current Version | Previous Version | Graphics & Text | Print | Product List | Glossary On
Versions: 1 2 3 4 5 6 7 8 9 10 11 12 13 14 15 16 17 18 19 20 21 22 23 24 25 26 27 28 29 30 31 32 33 34 35 36 37 38 39 40 41 42 43 44 45 46 47 48 49 50
000
ASUS43 KFGF 180931
RWRFGF
PRAIRIE TO PINES  WEATHER ROUNDUP
NATIONAL WEATHER SERVICE EASTERN NORTH DAKOTA/GRAND FORKS ND
400 AM CDT THU SEP 18 2014

 **SATELLITE DATA USED TO AUGMENT SKY COVER AT AUTOMATED STATIONS**
 *****  WEATHER ACROSS EASTERN NORTH DAKOTA  *****

CITY           SKY/WX    TMP DP  RH WIND       PRES   REMARKS
GRAND FORKS    CLEAR     38  37  97 N5        30.03S
GRAND FRKS AFB CLEAR     37  36  93 NE3       30.02F FOG
GRAND FRKS NWS   N/A     39 N/A N/A VRB2        N/A
DEVILS LAKE    CLEAR     45  37  76 E6        29.98S
FARGO          CLEAR     44  41  89 CALM      30.00F
WAHPETON ARPT  SUNNY     50  46  87 E6        30.01S
$$

 ***** WEATHER ACROSS CENTRAL AND WESTERN NORTH DAKOTA  *****

CITY           SKY/WX    TMP DP  RH WIND       PRES   REMARKS
BISMARCK       CLEAR     48  45  89 NE8       29.95F
MINOT          CLEAR     47  45  93 SE7       29.93F
JAMESTOWN      CLEAR     41  39  93 CALM      29.99S
MINOT AFB      CLEAR     45  45  99 SE9       29.92F
GARRISON         N/A     51  49  92 SE7       29.93F
WILLISTON      CLEAR     58  47  66 S5        29.84F
DICKINSON      CLEAR     51  45  79 SE12      29.87F
HETTINGER      PTCLDY    52  46  80 SE10      29.91F
$$

 *****  OTHER AIRPORT OBSERVATIONS IN OUR AREA  *****

CITY           SKY/WX    TMP DP  RH WIND       PRES   REMARKS
WALHALLA       FOG       34  34 100 CALM      30.03F VSB 1/4
GRAFTON AIRPOR FAIR      36  36 100 NE3       30.03F
VALLEY CITY AR FAIR      45  45 100 CALM      29.99F
CANDO          FAIR      39  37  93 SE8       29.99F
CAVALIER APRT  FOG       37  37 100 CALM      30.03F VSB 1
GWINNER        SUNNY     45  45 100 N6        30.00F
SHEYENNE NWR     N/A     46  46  98 CALM      29.95
ROLLA          FAIR      36  36 100 S5        30.00F
 ***** THE ABOVE OBSERVATIONS ARE NON NWS ARE NOT QUALITY
       CONTROLLED AND MAY MIS-REPORT RAIN FOR SNOW...
$$

  *****  WEATHER ACROSS NORTHERN MINNESOTA  *****

CITY           SKY/WX    TMP DP  RH WIND       PRES   REMARKS
FLAG ISLAND    CLOUDY    46  43  87 SE13G18   30.06F
WARROAD        CLEAR     39  36  87 SE7       30.07F
ROSEAU         CLEAR     37  32  81 SE5       30.06F
HALLOCK        CLEAR     39  37  93 E6        30.03F
THF RVR FALLS  CLOUDY    43  43 100 E6        30.04S VSB 1
BAUDETTE       MOCLDY    39  37  92 SE7       30.09R
WASKISH        CLOUDY    43  43 100 CALM      30.08S
CROOKSTON      CLEAR     45  43  93 E6        30.03S
$$
  *****  WEATHER ACROSS CENTRAL AND WEST MINNESOTA  *****

CITY           SKY/WX    TMP DP  RH WIND       PRES   REMARKS
FOSSTON        CLOUDY    46  45  93 CALM      30.04S FOG
BEMIDJI        CLOUDY    45  45  98 SE10      30.07S
PARK RAPIDS    CLOUDY    45  44  97 SE8       30.07S
ELBOW LAKE     FAIR      51  51  97 E10       30.02R
WADENA         CLOUDY    46  45  93 E8        30.06S FOG
DETROIT LAKES  CLOUDY    48  46  93 SE13      30.05S FOG
MOORHEAD       CLEAR     46  46 100 CALM      30.01S
FERGUS FALLS   CLEAR     52  50  93 E7        30.02S
MORRIS MN      CLEAR     52  50  93 E8        30.01R FOG
STAPLES        CLOUDY    46  45  93 SE6       30.08R FOG
$$
  *****  WEATHER ELSEWHERE ACROSS MINNESOTA  *****

CITY           SKY/WX    TMP DP  RH WIND       PRES   REMARKS
DULUTH         CLOUDY    44  37  76 E9        30.13S
INTRNTL FALLS  CLOUDY    41  40  96 SE6       30.11S
ELY            CLOUDY    39  37  93 S3        30.15R
CLOQUET        CLOUDY    43  36  75 E7        30.13S
WHEATON        PTCLDY    43  41  93 SE3       30.03R
BRAINERD       CLOUDY    47  43  86 VRB6      30.09S
HIBBING        CLOUDY    44  40  85 SE8       30.13S
ALEXANDRIA     FOG       49  48  97 E10       30.06R VSB 1/4
SAINT CLOUD    CLOUDY    49  45  86 E7        30.08S
MINNEAPOLIS    CLEAR     50  47  89 NE7       30.06S
$$

  *****  WEATHER ACROSS SOUTH DAKOTA  *****

CITY           SKY/WX    TMP DP  RH WIND       PRES   REMARKS
SIOUX FALLS    PTCLDY    57  53  86 E5        29.98S
BROOKINGS      NOT AVBL
WATERTOWN      CLEAR     50  47  89 CALM      29.99F
HURON          CLEAR     54  51  90 SE5       29.95F
SISSETON         N/A     44  43  96 CALM      29.99S
ABERDEEN       CLEAR     45  45 100 N3        29.98F
MITCHELL       CLEAR     54  53  97 CALM      29.96S
PIERRE         CLEAR     51  46  83 E7        29.92F
MOBRIDGE       CLEAR     52  48  86 E12       29.92F
RAPID CITY     CLEAR     51  49  92 CALM      29.91F
$$

  *****  SOME WEATHER IN NEARBY STATES *****

CITY           SKY/WX    TMP DP  RH WIND       PRES   REMARKS
GLASGOW MT     PTCLDY    56  47  71 E14       29.71F
GREAT FALLS MT MOCLDY    63  42  46 S10       29.75F
CHEYENNE WY    CLEAR     53  40  61 W9        30.10F
SCOTTSBLUFF NE CLEAR     54  54 100 SE5       29.97F
OMAHA NE       CLEAR     61  57  87 S5        29.98R
DES MOINES IA  PTCLDY    57  55  93 CALM      30.01S
DAVENPORT IA   CLEAR     47  45  93 CALM      30.04F
CHICAGO IL     CLEAR     54  49  83 N3        30.05S
EAU CLAIRE WI  CLEAR     47  45  93 NE6       30.08R
LA CROSSE WI   CLOUDY    51  49  92 CALM      30.06R FOG
$$

  *****  SOME NATIONAL WEATHER *****

CITY           SKY/WX    TMP DP  RH WIND       PRES   REMARKS
LA GUARDIA NY  CLEAR     63  52  67 W3        29.96R
RALEIGH NC     PTCLDY    61  58  90 CALM      29.96R
ATLANTA GA     MOCLDY    65  58  78 N5        29.93F
NEW ORLEANS LA PTCLDY    76  73  91 CALM      29.89S
OKLAHOMA CITY  CLOUDY    71  64  78 S6        29.90S
ALBUQUERQUE NM CLOUDY    63  56  78 N6        30.09S
SALT LAKE CITY PTCLDY    71  45  39 SE12      29.89S
LOS ANGELES CA CLEAR     68  60  75 SE6       29.79S
BOISE ID       CLOUDY    73  42  32 CALM      29.70F
SEATTLE WA     LGT RAIN  60  57  89 CALM      29.76F
$$

*** WEATHER ACROSS MANITOBA...SASKATCHEWAN AND ONTARIO ***
                ***ONTARIO***

CITY           SKY/WX    TMP DP  RH WIND       PRES   REMARKS
GERALDTON      PTCLDY    27  27 100 CALM      30.17R
THUNDER BAY    CLEAR     30  30 100 NW3       30.20R
SIOUX LOOKOUT  CLEAR     25  25 100 CALM      30.13F
TORONTO        PTCLDY    52  45  76 NW9       30.00R
BIG TROUT LK   MOCLDY    25  21  86 VRB2      30.15F
PICKLE LAKE    NOT AVBL
DRYDEN         CLEAR     34  32  93 E5        30.12F
KENORA         CLEAR     36  34  93 E8        30.10S
$$
                *** MANITOBA***

CITY           SKY/WX    TMP DP  RH WIND       PRES   REMARKS
BRANDON        CLEAR     36  34  93 E7        30.00F
DAUPHIN        CLEAR     36  36 100 NE2       29.95F
ISLAND LAKE    PTCLDY    37  28  70 S6        30.09S
PILOT MOUND      N/A     37  36  93 SE8         N/A
THE PAS        CLOUDY    43  41  93 SE16      29.84F
THOMPSON       MOCLDY    32  30  93 SE7       29.91F
WINNIPEG       CLEAR     37  36  93 SE6       30.05F
LYNN LAKE      PTCLDY    37  34  87 S8        29.75F
CHURCHILL      MOCLDY    30  25  80 S14       29.98F WCI  20
GILLAM         PTCLDY    28  27  93 S7        30.02F WCI  21
$$
                ***SASKATCHEWAN***

CITY           SKY/WX    TMP DP  RH WIND       PRES   REMARKS
ESTEVAN        PTCLDY    46  45  93 E10       29.87F
KINDERSLEY     MOCLDY    55  50  82 SE12      29.61F
LLOYDMINSTER   CLEAR     46  45  93 SE8       29.59F
PRINCE ALBERT  PTCLDY    43  43 100 E8        29.69F
REGINA         CLEAR     48  46  93 SE18G25   29.78F
YORKTON        CLEAR     41  39  93 SE14      29.86F
N. BATTLEFORD  CLEAR     48  46  93 E12       29.63F
LA RONGE       PTCLDY    45  43  93 SE6       29.67F
SASKATOON      PTCLDY    52  46  82 S6        29.67F
SWIFT CURRENT  CLEAR     55  48  76 S13       29.66F
$$
NOTE: THESE ARE AUTOMATED STATIONS WITH LIMITED QUALITY CONTROL
      "FAIR" INDICATES FEW OR NO CLOUDS BELOW 12,000 FEET WITH NO
      SIGNIFICANT WEATHER AND/OR OBSTRUCTIONS TO VISIBILITY.
      SKY/WX - SKY CONDITION AND SIGNIFICANT WEATHER.
      TMP - AIR TEMPERATURE.    DP   - DEWPOINT TEMPERATURE.
      RH  - RELATIVE HUMIDITY.  PRES - PRESSURE.
      HX  - HEAT INDEX.         WCI  - WIND CHILL INDEX.
$


USA.gov is the U.S. government's official web portal to all federal, state and local government web resources and services.